Dewpoint
55 55 54 54 54 55 56 55 57 58 58 58 59 59 59 59 57 46 33 43 50 53 55 48 40 34 36 38 43 41 32 24 20 22 29 29 25 27 30 35 34 32 41 40 46
57 57 56 56 56 56 57 58 57 57 58 58 59 59 58 59 50 33 46 48 53 54 39 32 30 31 31 30 36 34 29 24 22 24 24 25 24 26 23 27 27 25 30 40 45
56 57 57 57 57 57 57 57 57 57 58 58 59 58 58 57 43 38 51 52 52 49 36 33 32 31 27 31 29 27 25 25 21 23 22 26 25 22 20 21 28 28 24 33 40
54 55 57 57 57 57 57 57 57 57 58 58 58 58 59 47 22 38 47 46 46 45 33 28 29 27 26 23 25 26 25 21 21 24 25 26 26 24 23 23 25 23 24 27 39
56 57 57 57 57 57 57 57 57 57 58 58 58 58 47 37 26 40 38 44 37 31 29 30 26 25 24 22 21 20 23 24 25 25 25 25 25 25 25 26 26 25 24 25 33
56 57 57 57 57 57 57 57 57 58 58 57 57 55 46 21 24 29 26 24 26 29 29 31 30 30 25 24 24 23 25 25 22 22 22 21 23 24 24 25 23 22 23 24 23
56 56 56 56 56 57 57 57 57 57 56 55 56 45 31 26 27 25 26 24 25 26 30 32 32 30 28 26 27 29 23 22 22 20 20 25 19 19 22 23 22 22 18 20 22
55 55 55 56 56 56 57 57 56 55 54 53 54 41 22 28 30 24 23 20 23 27 27 33 33 31 28 29 22 18 19 17 17 20 27 22 18 23 19 18 18 17 16 17 16
55 55 55 54 55 56 56 56 54 53 52 50 42 35 25 29 22 21 24 21 23 27 30 27 31 29 29 27 22 18 12 12 10 14 18 20 15 19 19 16 16 17 16 16 15
55 55 55 55 55 55 56 55 53 51 48 38 31 24 17 20 23 20 20 23 25 26 28 29 27 25 26 22 16 12 9 9 9 9 13 15 16 17 19 19 20 20 18 19 19
55 55 54 54 55 55 51 41 41 36 30 27 23 20 23 23 23 19 21 22 24 24 22 27 22 16 19 17 15 12 10 11 15 19 19 21 21 21 22 23 24 26 28 29 29
54 54 54 54 54 53 49 38 37 39 28 30 29 28 29 29 23 21 23 21 20 20 20 20 22 22 20 18 19 20 19 19 20 22 20 20 20 22 23 27 29 29 26 25 24
55 54 53 53 52 45 41 41 43 40 32 28 30 27 27 30 23 23 23 22 21 21 21 20 22 24 19 20 20 20 19 21 22 23 23 21 17 20 27 29 25 23 21 19 19
54 52 52 50 42 40 41 44 45 41 29 27 27 28 28 27 25 27 25 25 24 22 23 22 23 21 22 21 20 19 22 23 23 22 18 21 18 19 25 25 23 21 22 21 19
52 50 50 46 41 39 42 44 44 41 25 26 28 30 26 25 27 29 27 26 24 23 23 19 20 22 22 21 23 21 24 25 25 24 23 23 21 18 25 25 24 25 22 13 18
52 51 49 42 42 43 45 44 41 31 19 29 30 28 27 27 28 29 30 31 33 29 27 23 24 23 24 27 26 25 26 22 20 19 20 21 22 17 21 24 16 11 8 7 13
48 46 47 41 41 43 44 39 30 20 26 28 28 26 25 26 25 26 28 30 26 23 23 25 22 26 28 22 27 27 22 14 13 22 21 18 15 18 22 14 9 7 8 9 9
47 48 34 35 42 43 41 32 21 25 28 29 26 22 25 25 25 15 24 26 25 23 23 22 19 24 21 22 23 20 20 18 12 9 19 19 13 20 15 9 9 11 11 11 11
46 43 27 25 40 41 37 25 30 27 21 22 23 20 27 26 16 12 27 32 28 24 19 19 20 20 16 24 22 19 15 14 19 19 16 15 13 19 11 9 11 11 11 10 12
45 23 18 23 37 39 32 29 24 18 18 18 21 19 17 17 12 4 5 25 25 23 22 16 9 6 19 17 15 18 16 9 9 5 3 1 2 3 9 10 13 11 10 8 12
43 32 12 21 32 34 28 30 21 12 20 19 17 10 18 14 4 -1 12 26 24 23 20 15 9 8 8 6 6 9 7 7 7 7 4 9 10 12 10 13 13 11 8 9 17
31 17 13 15 21 21 26 23 18 12 12 18 19 17 14 9 6 4 12 24 26 23 12 15 14 5 4 9 13 11 6 7 14 13 15 13 13 14 13 13 13 11 8 13 20
11 7 10 13 4 11 17 17 18 14 17 16 17 15 11 10 5 6 10 28 26 19 18 18 9 7 8 17 17 15 17 18 14 16 16 15 14 16 15 13 12 10 12 17 20
15 14 9 9 7 10 8 8 17 20 16 17 17 16 13 9 11 10 11 21 25 21 23 22 15 9 6 11 14 14 15 14 14 14 13 13 13 13 12 12 11 12 15 20 21
21 18 22 12 5 4 5 4 13 16 15 15 17 15 12 6 6 7 14 13 15 25 21 22 17 16 16 16 17 16 15 14 13 13 12 13 12 13 11 8 11 13 19 22 23
23 20 14 11 5 4 9 7 8 10 10 10 9 18 15 13 13 13 14 14 15 18 19 20 18 20 20 19 17 14 14 14 13 13 12 9 8 10 12 11 13 21 22 22 23
23 23 23 13 5 3 12 12 13 11 16 17 16 14 15 20 24 21 21 20 19 19 20 20 21 21 18 16 16 15 13 10 11 11 11 9 12 15 21 25 24 25 24 22 26
Wind_Speed
2 2 2 4 5 6 6 7 8 9 10 11 12 13 14 15 20 5 2 3 6 12 13 11 8 3 7 4 3 2 3 10 16 15 12 16 16 14 8 4 10 14 6 7 19
2 1 1 2 3 4 5 7 9 10 10 11 11 12 13 13 8 2 4 4 7 12 9 6 3 6 5 3 3 3 5 7 11 11 12 15 15 14 16 14 17 17 11 16 19
6 5 3 2 3 4 5 7 9 9 10 10 11 12 12 12 6 5 3 4 8 11 12 7 8 6 5 3 6 4 5 9 16 11 10 14 17 15 16 16 13 16 19 2 12
4 4 4 4 4 5 6 8 9 9 10 11 12 13 13 5 2 4 1 4 8 10 10 5 6 5 3 6 4 5 12 16 12 11 12 16 17 17 19 20 16 16 16 13 16
5 5 5 5 6 6 7 8 10 10 10 11 12 12 6 5 5 6 3 6 11 6 4 5 7 3 7 7 8 14 18 18 11 14 14 16 19 18 21 22 21 21 20 15 13
7 6 6 6 6 7 8 9 9 10 10 12 12 15 4 3 1 2 2 4 5 6 3 6 7 7 8 9 8 10 15 19 20 22 19 20 18 14 18 17 17 15 14 15 18
9 8 7 7 7 7 8 9 10 11 11 12 11 6 6 5 1 2 2 2 4 6 5 5 7 7 11 9 7 9 17 20 24 22 12 7 16 16 21 19 15 12 15 18 19
9 8 7 7 7 8 8 9 11 12 12 12 9 5 3 2 5 3 2 3 1 2 3 4 6 7 4 11 7 9 13 9 7 4 6 8 17 16 12 9 11 13 18 22 22
10 9 8 8 8 8 9 11 12 11 9 9 5 5 5 3 1 4 4 5 4 3 2 4 4 4 4 7 10 11 9 15 13 7 1 7 19 10 13 20 23 20 18 18 16
10 9 8 8 9 9 10 8 5 5 6 7 8 4 2 3 2 3 1 3 3 5 8 4 4 6 10 10 9 17 19 19 20 13 19 18 25 22 20 18 20 18 15 14 10
9 8 8 8 8 9 5 3 3 3 2 3 4 4 5 3 3 2 2 5 5 6 4 4 4 10 11 10 11 13 16 19 20 20 20 17 24 31 29 22 20 13 24 28 27
7 7 7 8 8 6 4 5 5 4 4 3 3 4 2 2 2 4 3 4 2 8 7 8 10 4 6 7 7 11 17 21 19 16 20 18 27 33 35 7 30 28 29 28 29
6 6 7 7 4 2 3 6 5 6 4 3 2 4 2 5 3 6 5 5 7 7 6 8 12 3 5 8 15 16 18 16 18 22 20 14 10 5 22 31 30 28 25 28 28
4 4 4 4 2 3 4 4 4 4 5 4 3 2 3 0 2 2 5 3 3 5 8 10 4 2 10 13 13 14 13 15 17 16 6 16 10 16 14 25 24 19 20 22 24
4 3 3 6 6 0 4 4 3 2 3 1 4 2 1 2 2 2 2 3 6 12 5 6 10 8 10 10 13 8 14 18 21 20 18 16 9 8 26 21 18 18 21 21 20
8 5 3 4 2 3 4 3 3 3 1 4 3 3 5 4 4 2 1 1 10 10 11 16 13 6 2 11 11 11 15 25 26 17 10 13 17 5 7 19 16 18 19 21 18
11 8 4 4 2 4 5 4 3 3 2 4 2 4 4 5 1 5 3 13 7 11 6 14 0 7 8 11 3 12 17 8 2 6 9 20 8 5 24 22 23 20 21 24 24
11 9 2 6 4 4 4 4 4 3 6 1 1 3 2 7 3 6 8 6 15 11 8 8 2 5 6 4 7 17 8 6 7 6 14 28 4 11 24 24 19 20 18 16 18
9 5 4 6 3 3 5 5 4 5 4 4 4 5 5 3 4 6 6 4 6 12 8 9 3 7 10 4 4 9 6 5 8 15 18 9 10 28 21 24 23 27 22 20 20
6 4 3 5 2 4 4 5 4 5 5 4 3 3 3 6 6 5 1 4 3 8 10 5 10 10 5 4 8 8 3 3 4 6 7 7 13 10 33 31 35 31 25 25 24
4 3 5 7 4 6 4 6 5 6 6 7 4 2 3 4 5 4 5 5 4 7 10 7 4 2 17 4 11 9 12 12 9 12 6 11 11 11 24 27 34 33 25 22 15
5 1 7 6 3 5 6 3 2 3 4 5 5 6 5 5 3 2 3 5 4 7 6 6 4 7 12 13 7 6 10 12 5 7 8 8 37 29 21 32 27 27 22 16 17
2 3 3 5 1 7 7 6 6 2 6 3 3 6 4 3 3 1 5 8 6 7 6 9 3 8 4 5 5 3 4 5 13 13 25 23 22 23 33 33 29 29 16 17 19
4 2 4 6 7 13 9 6 4 5 4 4 3 1 3 2 2 2 4 4 6 3 2 2 5 9 11 16 20 22 19 19 21 23 28 29 38 30 31 36 30 19 18 18 19
7 3 1 3 6 8 6 4 7 3 2 0 3 3 3 2 6 6 1 6 5 7 2 4 8 12 15 20 21 25 26 24 24 26 29 37 36 35 27 28 24 22 19 20 26
5 1 4 5 2 6 2 3 4 4 1 4 2 4 1 3 4 7 12 9 9 5 2 2 5 13 17 22 21 24 25 26 26 27 29 28 32 28 22 25 24 20 21 22 26
4 1 3 1 1 5 2 5 5 3 2 3 2 2 5 4 7 9 11 11 12 11 10 8 4 9 6 9 23 20 4 8 17 22 19 26 28 26 21 22 24 25 25 26 21
Wind_Direction
197 220 235 238 245 258 279 300 307 303 306 310 316 316 315 317 310 238 59 14 339 327 317 264 243 238 236 231 233 263 265 276 288 309 339 346 341 330 333 252 287 290 188 92 138
99 112 31 277 270 281 301 309 304 304 309 312 315 313 314 319 281 75 349 358 330 322 323 341 338 306 246 226 202 227 247 266 317 340 327 323 313 305 307 305 307 310 273 155 157
43 44 20 360 336 333 322 313 305 305 309 311 310 310 312 316 270 72 36 339 316 310 291 292 283 276 260 163 235 247 248 297 315 325 324 298 298 297 299 287 263 280 302 316 170
30 14 2 354 345 330 318 311 304 305 307 309 311 310 313 261 110 91 340 299 288 280 279 280 252 250 265 259 213 268 264 276 280 281 289 290 299 294 285 275 280 272 271 287 181
8 356 345 342 334 322 314 308 305 308 310 310 311 315 309 220 79 130 235 251 267 298 4 337 281 327 263 312 303 262 270 280 307 303 283 279 273 271 273 276 278 282 283 260 243
3 357 352 340 325 315 308 303 302 303 304 305 309 315 251 203 65 61 0 263 2 325 6 340 355 334 292 291 289 316 311 294 286 276 273 270 279 281 267 269 269 257 263 260 262
358 353 347 332 323 312 304 300 299 298 298 299 306 314 270 82 24 359 275 32 337 354 339 23 339 313 338 285 337 297 289 286 273 261 228 30 287 246 265 257 241 264 275 258 237
351 345 338 328 318 310 306 298 293 289 289 287 292 292 64 115 334 218 255 253 241 279 316 341 337 290 262 325 300 261 261 283 262 128 142 116 276 298 326 8 324 310 310 315 318
343 336 327 320 311 303 293 289 281 274 255 279 282 245 102 152 182 9 317 335 323 257 283 291 293 289 280 263 293 243 262 294 317 38 98 217 289 272 266 284 281 281 283 272 289
332 326 321 315 307 300 295 281 296 278 236 238 265 262 144 77 48 295 78 292 304 301 257 237 234 250 235 249 289 323 318 310 305 314 311 289 286 298 293 283 282 282 279 287 330
318 314 311 309 305 297 299 194 198 170 30 22 35 97 93 107 210 155 342 288 259 250 278 145 295 268 360 7 336 312 295 291 296 302 308 320 309 301 297 290 284 311 48 55 52
312 310 313 311 309 300 265 279 49 353 103 77 146 99 54 290 234 129 299 284 284 291 316 259 245 53 347 319 304 294 289 289 291 333 340 304 293 287 283 38 74 66 55 42 35
312 306 308 314 321 240 49 51 356 342 235 97 44 64 26 293 39 46 325 336 278 290 283 287 302 52 338 318 303 298 297 310 316 322 298 312 281 37 64 80 72 62 58 47 33
306 290 298 331 280 151 66 10 346 338 205 144 170 103 197 40 141 2 12 338 276 315 337 279 81 357 316 307 322 308 347 334 313 314 300 350 291 296 113 88 77 75 65 53 34
5 302 279 212 322 69 19 331 328 254 237 359 95 53 157 322 17 115 356 290 297 314 321 275 338 354 309 317 341 279 325 298 282 273 285 275 248 276 130 102 86 57 47 36 37
8 358 327 241 164 43 318 304 241 231 167 99 77 354 239 56 73 12 357 95 279 294 256 259 271 281 348 318 275 292 301 300 275 253 266 292 206 309 112 93 64 39 27 23 27
358 354 321 350 48 339 295 235 232 284 212 92 45 355 320 17 72 14 4 49 35 350 10 310 37 89 26 336 311 353 340 312 260 173 219 39 358 115 100 74 41 23 19 14 3
333 317 87 54 336 317 250 242 262 60 51 54 334 278 27 0 114 332 321 149 44 359 299 337 261 166 57 33 321 299 269 283 296 308 316 326 262 132 103 48 39 23 4 359 360
319 224 92 18 338 284 261 247 40 25 358 340 253 256 132 129 338 323 85 55 41 21 5 344 269 355 359 31 342 6 333 347 296 281 274 230 238 137 43 25 18 359 354 353 350
302 151 58 341 260 254 257 85 95 33 344 300 342 1 341 32 327 1 55 48 65 31 347 39 297 298 124 322 267 230 53 3 304 283 270 280 304 279 3 1 351 346 342 343 350
270 225 13 332 259 240 4 67 104 43 8 6 13 321 54 10 335 322 66 72 41 2 317 331 239 274 329 283 344 316 299 289 270 247 266 307 264 29 358 353 339 330 334 329 344
286 262 342 333 239 31 73 80 45 39 22 43 49 35 18 2 320 326 12 73 56 339 337 41 308 288 273 305 21 316 291 276 243 267 308 298 275 306 333 332 317 309 317 330 341
2 45 15 308 310 102 116 94 62 57 30 42 69 25 19 357 339 56 16 123 79 23 27 7 257 310 151 120 175 33 4 290 250 271 268 266 266 321 312 308 304 305 324 342 347
304 229 76 50 354 123 134 127 108 37 65 46 63 14 351 289 140 317 303 124 131 239 88 191 258 248 261 289 306 298 299 292 286 280 286 270 287 298 300 295 297 330 334 342 340
5 58 5 55 55 86 85 134 134 121 92 32 126 66 44 290 307 257 61 302 240 125 197 234 269 275 282 296 300 293 289 283 276 276 273 287 281 283 294 316 320 321 340 340 333
20 18 84 80 335 117 158 111 141 132 246 149 246 141 283 254 289 286 315 296 274 190 250 233 274 309 292 282 279 290 287 284 277 275 275 289 294 305 310 308 314 340 333 327 317
19 145 291 143 237 260 71 136 140 135 96 20 1 297 278 337 343 311 304 287 272 279 284 285 277 317 270 317 311 292 294 339 313 304 313 310 312 321 336 347 335 328 324 314 324